Location: Great Malvern
(52.1167°N, 2.3167°W)
Time: 03:54:25
(UTC+00:00)

Sich 1 Rocket - Pass Details

Date: 18 September 2020
Orbit: 617 x 652 km, 82.5° (Epoch: 22 October)

Event Time Altitude Azimuth Distance (km) Brightness Sun altitude
Rises 19:21:23 0° 182° (S) 2,920 6.9 -10.7°
Reaches altitude 10° 19:23:36 10° 180° (S) 2,022 6.0 -11.0°
Maximum altitude 19:28:03 69° 97° (E) 691 3.6 -11.7°
Drops below altitude 10° 19:32:36 10° 15° (NNE) 2,059 6.3 -12.3°
Sets 19:34:53 0° 13° (NNE) 2,979 7.1 -12.7°
